VOE65ND LEAS-LEVC

Flight info

Callsign VOE65ND
Flight time 1h 2m
Altitude 33000
Route KUVAN Y27 LARVO DCT ZMR DCT PDT/N0447F340 M871 ABOSI
Aircraft A320/M-SDE3FGHIRWY/LB1

Departure

Time 2026-04-14 08:27
Airport Asturias Airport (LEAS)

Arrival

Time 2026-04-14 09:30
Airport Valencia Airport (LEVC)
Time Latitude Longitude Altitude Speed Heading
2026-04-14 08:00 43.55996 -6.03181 426 ft 0 kts 269°
2026-04-14 08:22 43.55999 -6.03184 426 ft 1 kts 306°
2026-04-14 08:22 43.56001 -6.03184 426 ft 0 kts 322°
2026-04-14 08:23 43.56017 -6.03189 420 ft 5 kts 359°
2026-04-14 08:23 43.56029 -6.03134 426 ft 7 kts 95°
2026-04-14 08:23 43.56021 -6.03077 416 ft 6 kts 107°
2026-04-14 08:23 43.56005 -6.03006 416 ft 13 kts 107°
2026-04-14 08:24 43.56036 -6.02893 423 ft 14 kts 37°
2026-04-14 08:24 43.56030 -6.02774 420 ft 12 kts 110°
2026-04-14 08:24 43.56002 -6.02663 420 ft 13 kts 107°
2026-04-14 08:24 43.55974 -6.02539 421 ft 13 kts 108°
2026-04-14 08:25 43.55949 -6.02428 417 ft 11 kts 104°
2026-04-14 08:25 43.55956 -6.02341 421 ft 8 kts 66°
2026-04-14 08:25 43.55965 -6.02314 419 ft 0 kts 66°
2026-04-14 08:25 43.55966 -6.02312 420 ft 0 kts 66°
2026-04-14 08:26 43.55970 -6.02298 424 ft 7 kts 65°
2026-04-14 08:26 43.56013 -6.02211 421 ft 12 kts 39°
2026-04-14 08:26 43.56066 -6.02234 424 ft 9 kts 290°
2026-04-14 08:26 43.56073 -6.02262 418 ft 11 kts 288°
2026-04-14 08:27 43.56181 -6.02724 428 ft 89 kts 289°
2026-04-14 08:27 43.56438 -6.03810 422 ft 151 kts 287°
2026-04-14 08:27 43.56780 -6.05221 956 ft 157 kts 287°
2026-04-14 08:27 43.57141 -6.06684 1646 ft 164 kts 285°
2026-04-14 08:28 43.57512 -6.08256 2130 ft 184 kts 284°
2026-04-14 08:28 43.57931 -6.10082 2456 ft 212 kts 283°
2026-04-14 08:28 43.58364 -6.11954 3536 ft 202 kts 284°
2026-04-14 08:28 43.58796 -6.13780 4558 ft 199 kts 285°
2026-04-14 08:29 43.59204 -6.15610 5427 ft 200 kts 279°
2026-04-14 08:29 43.59008 -6.17493 6169 ft 208 kts 241°
2026-04-14 08:29 43.57869 -6.18791 6910 ft 224 kts 208°
2026-04-14 08:29 43.56406 -6.19543 7641 ft 229 kts 204°
2026-04-14 08:30 43.54869 -6.20205 8413 ft 234 kts 202°
2026-04-14 08:30 43.53299 -6.20851 9203 ft 237 kts 202°
2026-04-14 08:30 43.51697 -6.21515 9983 ft 242 kts 201°
2026-04-14 08:30 43.50082 -6.22200 10683 ft 245 kts 202°
2026-04-14 08:31 43.48438 -6.22912 11344 ft 250 kts 202°
2026-04-14 08:31 43.44932 -6.24032 12347 ft 280 kts 193°
2026-04-14 08:31 43.42926 -6.24500 12615 ft 304 kts 193°
2026-04-14 08:32 43.40759 -6.24997 12829 ft 328 kts 193°
2026-04-14 08:32 43.38413 -6.25528 13015 ft 352 kts 192°
2026-04-14 08:32 43.35933 -6.26081 13402 ft 366 kts 192°
2026-04-14 08:32 43.33422 -6.26639 14023 ft 373 kts 192°
2026-04-14 08:33 43.30830 -6.27220 14634 ft 379 kts 192°
2026-04-14 08:33 43.28210 -6.27813 15245 ft 384 kts 192°
2026-04-14 08:33 43.25562 -6.28415 15903 ft 388 kts 192°
2026-04-14 08:33 43.22874 -6.29028 16538 ft 392 kts 192°
2026-04-14 08:34 43.20196 -6.29639 17133 ft 396 kts 192°
2026-04-14 08:34 43.17460 -6.30264 17758 ft 400 kts 191°
2026-04-14 08:34 43.14694 -6.30890 18408 ft 404 kts 190°
2026-04-14 08:34 43.11866 -6.31127 18968 ft 410 kts 180°
2026-04-14 08:35 43.09010 -6.30659 19535 ft 415 kts 169°
2026-04-14 08:35 43.06256 -6.29552 20091 ft 420 kts 163°
2026-04-14 08:35 43.03469 -6.28295 20650 ft 423 kts 163°
2026-04-14 08:35 43.00658 -6.27041 21194 ft 426 kts 163°
2026-04-14 08:36 42.97823 -6.25785 21715 ft 430 kts 163°
2026-04-14 08:36 42.94963 -6.24516 22240 ft 433 kts 163°
2026-04-14 08:36 42.92089 -6.23239 22750 ft 437 kts 163°
2026-04-14 08:36 42.89177 -6.21949 23218 ft 440 kts 163°
2026-04-14 08:37 42.86283 -6.20671 23688 ft 444 kts 163°
2026-04-14 08:37 42.83327 -6.19368 24091 ft 447 kts 163°
2026-04-14 08:37 42.80352 -6.18054 24465 ft 451 kts 163°
2026-04-14 08:37 42.77344 -6.16726 24826 ft 454 kts 163°
2026-04-14 08:38 42.74322 -6.15398 25178 ft 458 kts 163°
2026-04-14 08:38 42.71295 -6.14083 25514 ft 461 kts 163°
2026-04-14 08:38 42.68225 -6.12758 25854 ft 464 kts 163°
2026-04-14 08:38 42.65128 -6.11425 26191 ft 468 kts 163°
2026-04-14 08:39 42.62013 -6.10085 26518 ft 471 kts 163°
2026-04-14 08:39 42.58910 -6.08752 26845 ft 474 kts 163°
2026-04-14 08:39 42.55750 -6.07396 27165 ft 477 kts 163°
2026-04-14 08:39 42.52565 -6.06031 27485 ft 480 kts 163°
2026-04-14 08:40 42.49371 -6.04663 27797 ft 483 kts 163°
2026-04-14 08:40 42.46155 -6.03283 28105 ft 486 kts 163°
2026-04-14 08:40 42.42921 -6.01898 28405 ft 489 kts 163°
2026-04-14 08:40 42.39671 -6.00507 28702 ft 491 kts 163°
2026-04-14 08:41 42.36438 -5.99125 28988 ft 494 kts 163°
2026-04-14 08:41 42.33137 -5.97714 29257 ft 497 kts 163°
2026-04-14 08:41 42.29826 -5.96300 29521 ft 499 kts 163°
2026-04-14 08:41 42.26500 -5.94882 29792 ft 501 kts 163°
2026-04-14 08:42 42.23201 -5.93479 30044 ft 504 kts 163°
2026-04-14 08:42 42.19848 -5.92056 30283 ft 506 kts 163°
2026-04-14 08:42 42.16480 -5.90627 30480 ft 508 kts 163°
2026-04-14 08:42 42.13092 -5.89188 30709 ft 509 kts 163°
2026-04-14 08:43 42.09712 -5.87754 31000 ft 509 kts 163°
2026-04-14 08:43 42.06333 -5.86322 31274 ft 508 kts 163°
2026-04-14 08:43 42.02951 -5.84893 31542 ft 508 kts 163°
2026-04-14 08:43 41.99620 -5.83490 31809 ft 508 kts 163°
2026-04-14 08:44 41.96234 -5.82068 32089 ft 509 kts 163°
2026-04-14 08:44 41.92856 -5.80650 32367 ft 509 kts 163°
2026-04-14 08:44 41.89467 -5.79225 32644 ft 509 kts 163°
2026-04-14 08:44 41.86087 -5.77799 32918 ft 509 kts 162°
2026-04-14 08:45 41.82710 -5.76374 33196 ft 509 kts 162°
2026-04-14 08:45 41.79333 -5.74951 33478 ft 509 kts 162°
2026-04-14 08:45 41.75983 -5.73543 33756 ft 509 kts 162°
2026-04-14 08:45 41.72602 -5.72126 34038 ft 509 kts 163°
2026-04-14 08:46 41.69213 -5.70710 34212 ft 509 kts 163°
2026-04-14 08:46 41.65832 -5.69302 34245 ft 508 kts 163°
2026-04-14 08:46 41.59137 -5.66439 34247 ft 507 kts 158°
2026-04-14 08:47 41.53042 -5.61843 34243 ft 503 kts 139°
2026-04-14 08:47 41.48272 -5.55144 34241 ft 494 kts 121°
2026-04-14 08:48 41.44306 -5.47730 34247 ft 494 kts 121°
2026-04-14 08:48 41.40277 -5.40299 34246 ft 494 kts 121°
2026-04-14 08:49 41.36922 -5.34134 34242 ft 494 kts 121°
2026-04-14 08:49 41.32234 -5.25510 34246 ft 493 kts 121°
2026-04-14 08:50 41.28888 -5.19359 34247 ft 493 kts 121°
2026-04-14 08:50 41.24862 -5.11961 34243 ft 493 kts 121°
2026-04-14 08:51 41.20829 -5.04578 34246 ft 493 kts 121°
2026-04-14 08:51 41.16787 -4.97211 34244 ft 493 kts 121°
2026-04-14 08:52 41.12762 -4.89900 34242 ft 493 kts 121°
2026-04-14 08:52 41.08719 -4.82550 34247 ft 493 kts 121°
2026-04-14 08:53 41.04668 -4.75209 34244 ft 493 kts 121°
2026-04-14 08:53 41.00640 -4.67942 34247 ft 493 kts 121°
2026-04-14 08:54 40.96572 -4.60604 34243 ft 493 kts 121°
2026-04-14 08:54 40.92508 -4.53283 34243 ft 494 kts 121°
2026-04-14 08:55 40.88451 -4.46001 34250 ft 495 kts 121°
2026-04-14 08:55 40.84356 -4.38665 34251 ft 495 kts 121°
2026-04-14 08:56 40.80246 -4.31325 34243 ft 496 kts 121°
2026-04-14 08:56 40.76155 -4.24029 34237 ft 497 kts 121°
2026-04-14 08:57 40.72027 -4.16695 34226 ft 498 kts 121°
2026-04-14 08:57 40.67902 -4.09391 34217 ft 498 kts 121°
2026-04-14 08:58 40.63760 -4.02060 34215 ft 499 kts 120°
2026-04-14 08:58 40.59603 -3.94721 34206 ft 499 kts 120°
2026-04-14 08:59 40.55470 -3.87441 34206 ft 499 kts 120°
2026-04-14 08:59 40.51305 -3.80122 34210 ft 498 kts 120°
2026-04-14 09:00 40.47165 -3.72874 34216 ft 498 kts 120°
2026-04-14 09:00 40.42997 -3.65592 34216 ft 497 kts 120°
2026-04-14 09:01 40.38862 -3.58380 34229 ft 497 kts 120°
2026-04-14 09:01 40.34699 -3.51127 34231 ft 497 kts 120°
2026-04-14 09:02 40.30540 -3.43891 34235 ft 496 kts 120°
2026-04-14 09:02 40.26533 -3.36637 34221 ft 488 kts 112°
2026-04-14 09:03 40.23930 -3.28630 34226 ft 469 kts 96°
2026-04-14 09:03 40.22136 -3.20404 34211 ft 469 kts 97°
2026-04-14 09:04 40.20327 -3.12259 34210 ft 469 kts 97°
2026-04-14 09:04 40.18496 -3.04055 34214 ft 469 kts 97°
2026-04-14 09:05 40.16674 -2.95858 34218 ft 469 kts 96°
2026-04-14 09:05 40.14855 -2.87689 34220 ft 469 kts 96°
2026-04-14 09:06 40.13023 -2.79532 34219 ft 469 kts 96°
2026-04-14 09:06 40.11182 -2.71352 34219 ft 469 kts 96°
2026-04-14 09:07 40.09345 -2.63215 34223 ft 469 kts 96°
2026-04-14 09:07 40.07492 -2.55041 34215 ft 469 kts 96°
2026-04-14 09:08 40.05629 -2.46854 34211 ft 469 kts 96°
2026-04-14 09:08 40.03771 -2.38723 34207 ft 469 kts 96°
2026-04-14 09:09 40.01901 -2.30545 34200 ft 470 kts 96°
2026-04-14 09:09 40.00017 -2.22360 34200 ft 470 kts 96°
2026-04-14 09:10 39.98134 -2.14223 34189 ft 470 kts 96°
2026-04-14 09:10 39.96240 -2.06043 34187 ft 470 kts 95°
2026-04-14 09:11 39.94353 -1.97931 34180 ft 471 kts 95°
2026-04-14 09:11 39.92441 -1.89744 34178 ft 471 kts 95°
2026-04-14 09:12 39.90535 -1.81625 34169 ft 471 kts 95°
2026-04-14 09:12 39.88618 -1.73468 33961 ft 471 kts 95°
2026-04-14 09:13 39.87653 -1.69372 32853 ft 477 kts 95°
2026-04-14 09:13 39.86681 -1.65225 31715 ft 482 kts 96°
2026-04-14 09:13 39.85690 -1.61028 30702 ft 483 kts 97°
2026-04-14 09:13 39.84696 -1.56838 29721 ft 483 kts 98°
2026-04-14 09:14 39.83707 -1.52706 29096 ft 474 kts 98°
2026-04-14 09:14 39.82743 -1.48688 28398 ft 467 kts 98°
2026-04-14 09:14 39.81779 -1.44670 27727 ft 461 kts 98°
2026-04-14 09:14 39.80832 -1.40705 27062 ft 456 kts 98°
2026-04-14 09:15 39.79875 -1.36774 26396 ft 455 kts 101°
2026-04-14 09:15 39.78518 -1.33001 25732 ft 466 kts 112°
2026-04-14 09:15 39.76600 -1.29612 25054 ft 476 kts 126°
2026-04-14 09:15 39.74104 -1.26704 24375 ft 485 kts 139°
2026-04-14 09:16 39.71173 -1.24492 23655 ft 491 kts 152°
2026-04-14 09:16 39.68068 -1.22685 22931 ft 487 kts 152°
2026-04-14 09:16 39.64987 -1.20890 22302 ft 481 kts 152°
2026-04-14 09:16 39.61952 -1.19115 21678 ft 476 kts 152°
2026-04-14 09:17 39.58964 -1.17318 21093 ft 468 kts 149°
2026-04-14 09:17 39.56254 -1.15054 20534 ft 457 kts 137°
2026-04-14 09:17 39.53988 -1.12318 20019 ft 444 kts 127°
2026-04-14 09:17 39.52150 -1.09173 19508 ft 432 kts 117°
2026-04-14 09:18 39.50587 -1.05873 19000 ft 427 kts 117°
2026-04-14 09:18 39.49118 -1.02794 18510 ft 424 kts 117°
2026-04-14 09:18 39.47674 -0.99796 17973 ft 420 kts 117°
2026-04-14 09:18 39.46134 -0.96607 17431 ft 415 kts 118°
2026-04-14 09:19 39.44626 -0.93486 16913 ft 411 kts 118°
2026-04-14 09:19 39.43112 -0.90352 16304 ft 409 kts 118°
2026-04-14 09:19 39.41607 -0.87232 15746 ft 407 kts 118°
2026-04-14 09:19 39.40119 -0.84142 15216 ft 403 kts 118°
2026-04-14 09:20 39.38685 -0.81044 14662 ft 398 kts 112°
2026-04-14 09:20 39.37658 -0.77746 14073 ft 394 kts 107°
2026-04-14 09:20 39.36713 -0.74426 13424 ft 393 kts 106°
2026-04-14 09:20 39.35786 -0.71162 12774 ft 390 kts 106°
2026-04-14 09:21 39.34856 -0.67882 12086 ft 383 kts 107°
2026-04-14 09:21 39.33956 -0.64718 11409 ft 367 kts 106°
2026-04-14 09:21 39.33085 -0.61686 10747 ft 355 kts 106°
2026-04-14 09:21 39.32233 -0.58731 10091 ft 345 kts 107°
2026-04-14 09:22 39.31407 -0.55872 9391 ft 334 kts 106°
2026-04-14 09:22 39.30599 -0.53104 8690 ft 324 kts 106°
2026-04-14 09:22 39.29805 -0.50411 8006 ft 316 kts 106°
2026-04-14 09:22 39.29056 -0.47778 7328 ft 306 kts 101°
2026-04-14 09:23 39.28831 -0.45160 6677 ft 291 kts 81°
2026-04-14 09:23 39.29286 -0.42681 5995 ft 277 kts 61°
2026-04-14 09:23 39.30297 -0.40673 5507 ft 260 kts 44°
2026-04-14 09:23 39.31544 -0.39014 4855 ft 255 kts 43°
2026-04-14 09:24 39.32767 -0.37401 4190 ft 244 kts 43°
2026-04-14 09:24 39.33886 -0.35914 4111 ft 219 kts 43°
2026-04-14 09:24 39.34895 -0.34570 4061 ft 199 kts 42°
2026-04-14 09:24 39.35837 -0.33321 4016 ft 190 kts 42°
2026-04-14 09:25 39.36751 -0.32116 3971 ft 189 kts 42°
2026-04-14 09:25 39.37734 -0.31004 3899 ft 186 kts 28°
2026-04-14 09:25 39.38903 -0.30371 3852 ft 176 kts 11°
2026-04-14 09:25 39.40073 -0.30260 3759 ft 163 kts 354°
2026-04-14 09:26 39.41156 -0.30587 3553 ft 161 kts 339°
2026-04-14 09:26 39.42138 -0.31324 3115 ft 166 kts 322°
2026-04-14 09:26 39.42916 -0.32469 2743 ft 173 kts 303°
2026-04-14 09:26 39.43457 -0.33837 2458 ft 173 kts 298°
2026-04-14 09:27 39.43990 -0.35227 2194 ft 170 kts 298°
2026-04-14 09:27 39.44494 -0.36546 1993 ft 155 kts 297°
2026-04-14 09:27 39.44948 -0.37731 1784 ft 140 kts 298°
2026-04-14 09:27 39.45367 -0.38827 1601 ft 133 kts 297°
2026-04-14 09:28 39.45767 -0.39876 1412 ft 131 kts 296°
2026-04-14 09:28 39.46160 -0.40942 1186 ft 131 kts 295°
2026-04-14 09:28 39.46571 -0.41990 1030 ft 130 kts 297°
2026-04-14 09:28 39.46986 -0.43029 850 ft 129 kts 295°
2026-04-14 09:29 39.47376 -0.44077 691 ft 129 kts 296°
2026-04-14 09:29 39.47768 -0.45122 526 ft 129 kts 296°
2026-04-14 09:29 39.48176 -0.46162 357 ft 129 kts 295°
2026-04-14 09:29 39.48567 -0.47195 234 ft 125 kts 296°
2026-04-14 09:30 39.48899 -0.48076 212 ft 89 kts 296°
2026-04-14 09:30 39.49081 -0.48555 209 ft 40 kts 296°
2026-04-14 09:30 39.49193 -0.48854 211 ft 34 kts 296°
2026-04-14 09:30 39.49303 -0.49108 214 ft 31 kts 308°
2026-04-14 09:31 39.49460 -0.49285 209 ft 27 kts 324°
2026-04-14 09:31 39.49547 -0.49283 212 ft 11 kts 76°
2026-04-14 09:31 39.49527 -0.49197 212 ft 10 kts 117°
2026-04-14 09:31 39.49496 -0.49118 214 ft 12 kts 116°
2026-04-14 09:32 39.49441 -0.48972 209 ft 24 kts 115°
2026-04-14 09:32 39.49351 -0.48739 214 ft 34 kts 117°
2026-04-14 09:32 39.49135 -0.48169 209 ft 25 kts 115°
2026-04-14 09:33 39.49061 -0.47973 214 ft 22 kts 116°
2026-04-14 09:33 39.49033 -0.47816 209 ft 15 kts 75°
2026-04-14 09:33 39.49048 -0.47732 209 ft 5 kts 77°
2026-04-14 09:33 39.49049 -0.47726 212 ft 0 kts 77°
2026-04-14 09:34 39.49050 -0.47726 211 ft 1 kts 77°
2026-04-14 09:34 39.49053 -0.47706 209 ft 2 kts 77°
2026-04-14 09:34 39.49057 -0.47685 209 ft 5 kts 76°
2026-04-14 09:34 39.49054 -0.47621 212 ft 7 kts 110°
2026-04-14 09:35 39.49029 -0.47557 214 ft 9 kts 116°
2026-04-14 09:35 39.49003 -0.47487 209 ft 9 kts 116°
2026-04-14 09:35 39.48995 -0.47420 209 ft 7 kts 57°
2026-04-14 09:35 39.49032 -0.47395 211 ft 4 kts 22°
2026-04-14 09:36 39.49047 -0.47387 215 ft 0 kts 22°
2026-04-14 09:36 39.49050 -0.47386 214 ft 0 kts 22°
2026-04-14 09:36 39.49053 -0.47384 213 ft 1 kts 22°
2026-04-14 09:37 39.49055 -0.47384 213 ft 0 kts 22°